{"data":{"norad_id":62523,"intl_designator":"2025-004N","name":"STARLINK-11527 [DTC]","alt_names":[],"object_type":"PAYLOAD","status":"ACTIVE","operator":null,"country":"US","launch_date":"2025-01-08","launch_site_code":"AFETR","launch_vehicle":null,"mission":null,"orbit_class":"UNKNOWN","rcs_meters":null,"size_class":null,"mass_kg":null,"dimensions":null,"purposes":["comms"],"wikipedia_slug":null,"has_3d_model":false,"image_url":null,"decayed_at":null,"tle_current":{"epoch":"2026-09-21T11:26:47.473440Z","epoch_age_seconds":90098,"freshness":"FRESH","line1":"1 62523U 25004N   26264.47693835  .00187313  00000+0  14286-2 0  9999","line2":"2 62523  43.0004 330.3301 0001018 289.0656  71.0102 15.70873048 98001","mean_motion":15.70873048,"eccentricity":0.0001018,"inclination_deg":43.0004,"raan_deg":330.3301,"arg_perigee_deg":289.0656,"mean_anomaly_deg":71.0102,"bstar":0.0014286,"rev_number":9800,"period_min":91.668769913226,"perigee_km":355.71502992725,"apogee_km":357.0861817838,"semimajor_km":6734.5376058555,"source":"CELESTRAK","updated_at":"2026-09-22T09:00:49.623870Z"}}}